QLK142D YSCB-YSSY

Flight info

Callsign QLK142D
Flight time 0h 37m
Altitude 19000
Route CULIN Y59 RIVET
Aircraft DH8D/M-SDE2E3FGRY/H

Departure

Time 2026-04-25 09:56
Airport Canberra Airport (YSCB)

Arrival

Time 2026-04-25 10:33
Airport Sydney Kingsford Smith International Airport (YSSY)
Time Latitude Longitude Altitude Speed Heading
2026-04-25 09:42 -35.30839 149.19138 1880 ft 0 kts 270°
2026-04-25 09:48 -35.30839 149.19136 1880 ft 0 kts 270°
2026-04-25 09:49 -35.30839 149.19139 1880 ft 1 kts 278°
2026-04-25 09:49 -35.30841 149.19156 1881 ft 2 kts 269°
2026-04-25 09:49 -35.30841 149.19174 1881 ft 2 kts 270°
2026-04-25 09:49 -35.30841 149.19192 1881 ft 2 kts 270°
2026-04-25 09:50 -35.30841 149.19211 1881 ft 2 kts 270°
2026-04-25 09:50 -35.30841 149.19223 1881 ft 2 kts 265°
2026-04-25 09:50 -35.30833 149.19244 1882 ft 0 kts 227°
2026-04-25 09:51 -35.30835 149.19243 1881 ft 3 kts 218°
2026-04-25 09:52 -35.30910 149.19238 1882 ft 20 kts 180°
2026-04-25 09:52 -35.31074 149.19238 1882 ft 23 kts 180°
2026-04-25 09:52 -35.31200 149.19240 1881 ft 16 kts 179°
2026-04-25 09:52 -35.31313 149.19238 1881 ft 11 kts 181°
2026-04-25 09:53 -35.31395 149.19241 1880 ft 9 kts 167°
2026-04-25 09:53 -35.31446 149.19273 1880 ft 5 kts 126°
2026-04-25 09:53 -35.31456 149.19293 1881 ft 0 kts 117°
2026-04-25 09:53 -35.31456 149.19295 1881 ft 0 kts 116°
2026-04-25 09:54 -35.31464 149.19319 1882 ft 7 kts 108°
2026-04-25 09:55 -35.31471 149.19397 1884 ft 5 kts 89°
2026-04-25 09:55 -35.31451 149.19444 1884 ft 5 kts 12°
2026-04-25 09:55 -35.31365 149.19446 1885 ft 42 kts
2026-04-25 09:55 -35.30664 149.19446 1886 ft 148 kts 359°
2026-04-25 09:56 -35.29552 149.19467 2566 ft 173 kts
2026-04-25 09:56 -35.28342 149.19672 3638 ft 181 kts 19°
2026-04-25 09:56 -35.27353 149.20493 4776 ft 185 kts 39°
2026-04-25 09:56 -35.26247 149.21471 5615 ft 204 kts 31°
2026-04-25 09:57 -35.25061 149.22353 6664 ft 210 kts 30°
2026-04-25 09:57 -35.23799 149.23206 7792 ft 211 kts 28°
2026-04-25 09:57 -35.22512 149.24059 8737 ft 213 kts 28°
2026-04-25 09:57 -35.21225 149.24913 9502 ft 221 kts 27°
2026-04-25 09:58 -35.19804 149.25819 9882 ft 241 kts 26°
2026-04-25 09:58 -35.18274 149.26787 10224 ft 261 kts 27°
2026-04-25 09:58 -35.16568 149.27867 10368 ft 283 kts 27°
2026-04-25 09:58 -35.14907 149.28909 11561 ft 261 kts 27°
2026-04-25 09:59 -35.13334 149.29897 12517 ft 254 kts 27°
2026-04-25 09:59 -35.11780 149.30872 13295 ft 254 kts 26°
2026-04-25 09:59 -35.10219 149.31848 14004 ft 255 kts 27°
2026-04-25 09:59 -35.08638 149.32832 14667 ft 257 kts 27°
2026-04-25 10:00 -35.07013 149.33836 15281 ft 261 kts 27°
2026-04-25 10:00 -35.05392 149.34831 15880 ft 264 kts 27°
2026-04-25 10:00 -35.03756 149.35829 16432 ft 268 kts 27°
2026-04-25 10:00 -35.02070 149.36852 16993 ft 271 kts 27°
2026-04-25 10:01 -35.00384 149.37871 17572 ft 273 kts 27°
2026-04-25 10:01 -34.98675 149.38898 18114 ft 274 kts 27°
2026-04-25 10:01 -34.96950 149.39909 18583 ft 278 kts 26°
2026-04-25 10:01 -34.95359 149.41246 19070 ft 280 kts 44°
2026-04-25 10:02 -34.93977 149.42975 19278 ft 292 kts 47°
2026-04-25 10:02 -34.92540 149.44780 19331 ft 306 kts 46°
2026-04-25 10:02 -34.90990 149.46677 19344 ft 319 kts 45°
2026-04-25 10:02 -34.89400 149.48585 19349 ft 331 kts 45°
2026-04-25 10:03 -34.87705 149.50589 19350 ft 337 kts 44°
2026-04-25 10:03 -34.86001 149.52583 19348 ft 342 kts 44°
2026-04-25 10:03 -34.84280 149.54587 19346 ft 346 kts 44°
2026-04-25 10:03 -34.82527 149.56613 19343 ft 349 kts 44°
2026-04-25 10:04 -34.80776 149.58629 19340 ft 346 kts 44°
2026-04-25 10:04 -34.79022 149.60641 19344 ft 344 kts 44°
2026-04-25 10:04 -34.77274 149.62642 19343 ft 343 kts 44°
2026-04-25 10:04 -34.75538 149.64627 19341 ft 342 kts 44°
2026-04-25 10:05 -34.73817 149.66591 19343 ft 342 kts 43°
2026-04-25 10:05 -34.72085 149.68565 19341 ft 341 kts 44°
2026-04-25 10:05 -34.70345 149.70546 19349 ft 341 kts 43°
2026-04-25 10:05 -34.68618 149.72514 19352 ft 340 kts 44°
2026-04-25 10:06 -34.66897 149.74474 19354 ft 340 kts 44°
2026-04-25 10:06 -34.65177 149.76427 19360 ft 339 kts 44°
2026-04-25 10:06 -34.63445 149.78392 19366 ft 339 kts 43°
2026-04-25 10:06 -34.61731 149.80336 19364 ft 338 kts 43°
2026-04-25 10:07 -34.60016 149.82280 19363 ft 338 kts 43°
2026-04-25 10:07 -34.58299 149.84224 19365 ft 338 kts 44°
2026-04-25 10:07 -34.56575 149.86177 19359 ft 339 kts 44°
2026-04-25 10:07 -34.54848 149.88130 19361 ft 339 kts 44°
2026-04-25 10:08 -34.53122 149.90076 19359 ft 339 kts 44°
2026-04-25 10:08 -34.51345 149.92006 19346 ft 340 kts 39°
2026-04-25 10:08 -34.49264 149.93288 19359 ft 341 kts 19°
2026-04-25 10:08 -34.46924 149.93608 19363 ft 343 kts 358°
2026-04-25 10:09 -34.44600 149.92914 19360 ft 344 kts 337°
2026-04-25 10:09 -34.42622 149.91286 19360 ft 346 kts 317°
2026-04-25 10:09 -34.41239 149.88951 19361 ft 346 kts 296°
2026-04-25 10:09 -34.40600 149.86159 19367 ft 346 kts 276°
2026-04-25 10:10 -34.40797 149.83276 19369 ft 346 kts 256°
2026-04-25 10:10 -34.41821 149.80633 19367 ft 345 kts 235°
2026-04-25 10:10 -34.43511 149.78622 19369 ft 343 kts 214°
2026-04-25 10:10 -34.45711 149.77545 19366 ft 341 kts 189°
2026-04-25 10:11 -34.48028 149.77774 19368 ft 339 kts 162°
2026-04-25 10:11 -34.50018 149.79228 19365 ft 338 kts 136°
2026-04-25 10:11 -34.51342 149.81555 19381 ft 338 kts 117°
2026-04-25 10:11 -34.52243 149.84215 19350 ft 339 kts 107°
2026-04-25 10:12 -34.52367 149.87035 19361 ft 339 kts 81°
2026-04-25 10:12 -34.51603 149.89737 19379 ft 340 kts 68°
2026-04-25 10:12 -34.49603 149.94919 19358 ft 342 kts 64°
2026-04-25 10:13 -34.48541 149.97490 19356 ft 342 kts 64°
2026-04-25 10:13 -34.47456 150.00050 19352 ft 342 kts 63°
2026-04-25 10:13 -34.46358 150.02597 19355 ft 342 kts 63°
2026-04-25 10:13 -34.45232 150.05173 19351 ft 342 kts 63°
2026-04-25 10:14 -34.44116 150.07700 19347 ft 342 kts 62°
2026-04-25 10:14 -34.43002 150.10207 19350 ft 342 kts 62°
2026-04-25 10:14 -34.41859 150.12762 19364 ft 342 kts 62°
2026-04-25 10:14 -34.40746 150.15236 19143 ft 334 kts 62°
2026-04-25 10:15 -34.39637 150.17686 18835 ft 328 kts 62°
2026-04-25 10:15 -34.38556 150.20070 18504 ft 324 kts 62°
2026-04-25 10:15 -34.37473 150.22456 18172 ft 328 kts 62°
2026-04-25 10:15 -34.36360 150.24904 17803 ft 332 kts 62°
2026-04-25 10:16 -34.35249 150.27348 17448 ft 336 kts 62°
2026-04-25 10:16 -34.34111 150.29852 17081 ft 338 kts 62°
2026-04-25 10:16 -34.32979 150.32336 16722 ft 339 kts 62°
2026-04-25 10:16 -34.31834 150.34842 16351 ft 340 kts 62°
2026-04-25 10:17 -34.30696 150.37338 15975 ft 341 kts 62°
2026-04-25 10:17 -34.29556 150.39836 15606 ft 340 kts 62°
2026-04-25 10:17 -34.28418 150.42325 15236 ft 340 kts 62°
2026-04-25 10:17 -34.27284 150.44820 14864 ft 333 kts 62°
2026-04-25 10:18 -34.26200 150.47247 14522 ft 324 kts 63°
2026-04-25 10:18 -34.25148 150.49606 14177 ft 318 kts 63°
2026-04-25 10:18 -34.24107 150.51939 13836 ft 314 kts 63°
2026-04-25 10:18 -34.23079 150.54239 13495 ft 310 kts 63°
2026-04-25 10:19 -34.22061 150.56516 13156 ft 307 kts 62°
2026-04-25 10:19 -34.21050 150.58771 12826 ft 304 kts 62°
2026-04-25 10:19 -34.20046 150.61012 12500 ft 302 kts 62°
2026-04-25 10:19 -34.19052 150.63228 12196 ft 300 kts 62°
2026-04-25 10:20 -34.18065 150.65427 11874 ft 298 kts 62°
2026-04-25 10:20 -34.17072 150.67638 11546 ft 296 kts 62°
2026-04-25 10:20 -34.16101 150.69795 11229 ft 295 kts 62°
2026-04-25 10:20 -34.15125 150.71965 10911 ft 293 kts 62°
2026-04-25 10:21 -34.14150 150.74129 10591 ft 292 kts 62°
2026-04-25 10:21 -34.13187 150.76266 10265 ft 291 kts 62°
2026-04-25 10:21 -34.12283 150.78433 9941 ft 285 kts 69°
2026-04-25 10:21 -34.12101 150.80743 9533 ft 275 kts 97°
2026-04-25 10:22 -34.12385 150.82936 9337 ft 260 kts 97°
2026-04-25 10:22 -34.12539 150.84393 9211 ft 263 kts 97°
2026-04-25 10:22 -34.12859 150.87323 9069 ft 264 kts 97°
2026-04-25 10:22 -34.13108 150.89520 9066 ft 269 kts 97°
2026-04-25 10:23 -34.13377 150.91815 8984 ft 283 kts 98°
2026-04-25 10:23 -34.13656 150.94136 8717 ft 284 kts 98°
2026-04-25 10:23 -34.13936 150.96472 8369 ft 275 kts 98°
2026-04-25 10:23 -34.14200 150.98697 8010 ft 263 kts 98°
2026-04-25 10:24 -34.14459 151.00829 7673 ft 250 kts 98°
2026-04-25 10:24 -34.14704 151.02843 7364 ft 238 kts 98°
2026-04-25 10:24 -34.14946 151.04819 7057 ft 238 kts 98°
2026-04-25 10:24 -34.15186 151.06786 6744 ft 236 kts 98°
2026-04-25 10:25 -34.15418 151.08696 6436 ft 224 kts 98°
2026-04-25 10:25 -34.15639 151.10506 6145 ft 213 kts 98°
2026-04-25 10:25 -34.15850 151.12239 5873 ft 207 kts 97°
2026-04-25 10:25 -34.16065 151.13976 5613 ft 213 kts 97°
2026-04-25 10:26 -34.16285 151.15756 5326 ft 214 kts 97°
2026-04-25 10:26 -34.16501 151.17543 5049 ft 213 kts 97°
2026-04-25 10:26 -34.16711 151.19267 4765 ft 203 kts 97°
2026-04-25 10:26 -34.16777 151.20915 4309 ft 200 kts 76°
2026-04-25 10:27 -34.16006 151.22217 3900 ft 188 kts 29°
2026-04-25 10:27 -34.14783 151.22414 3582 ft 178 kts 349°
2026-04-25 10:27 -34.13586 151.22128 3294 ft 173 kts 359°
2026-04-25 10:27 -34.12434 151.22089 3074 ft 163 kts 355°
2026-04-25 10:28 -34.11339 151.21849 2921 ft 158 kts 351°
2026-04-25 10:28 -34.10270 151.21614 2712 ft 152 kts 352°
2026-04-25 10:28 -34.09270 151.21382 2491 ft 145 kts 351°
2026-04-25 10:28 -34.08295 151.21137 2294 ft 140 kts 352°
2026-04-25 10:29 -34.07349 151.20900 2127 ft 138 kts 352°
2026-04-25 10:29 -34.06396 151.20659 1968 ft 141 kts 352°
2026-04-25 10:29 -34.05466 151.20415 1763 ft 133 kts 352°
2026-04-25 10:29 -34.04584 151.20187 1621 ft 125 kts 353°
2026-04-25 10:30 -34.03732 151.19965 1480 ft 125 kts 352°
2026-04-25 10:30 -34.03153 151.19818 1389 ft 123 kts 353°
2026-04-25 10:30 -34.02057 151.19533 1141 ft 117 kts 353°
2026-04-25 10:30 -34.01253 151.19327 997 ft 119 kts 354°
2026-04-25 10:31 -34.00417 151.19116 850 ft 125 kts 353°
2026-04-25 10:31 -33.99572 151.18890 677 ft 124 kts 353°
2026-04-25 10:31 -33.98748 151.18674 514 ft 119 kts 354°
2026-04-25 10:31 -33.97938 151.18460 363 ft 119 kts 353°
2026-04-25 10:32 -33.97134 151.18248 202 ft 117 kts 354°
2026-04-25 10:32 -33.96332 151.18041 68 ft 116 kts 354°
2026-04-25 10:32 -33.95593 151.17853 30 ft 97 kts 348°
2026-04-25 10:32 -33.95001 151.17696 30 ft 76 kts 349°
2026-04-25 10:33 -33.94499 151.17566 30 ft 69 kts 347°
2026-04-25 10:33 -33.94115 151.17468 30 ft 34 kts 349°
2026-04-25 10:33 -33.93938 151.17438 30 ft 16 kts 28°
2026-04-25 10:33 -33.93896 151.17546 30 ft 10 kts 74°
2026-04-25 10:34 -33.93864 151.17598 30 ft 7 kts 20°
2026-04-25 10:34 -33.93773 151.17578 30 ft 14 kts 348°
2026-04-25 10:34 -33.93683 151.17560 30 ft 11 kts 356°
2026-04-25 10:34 -33.93606 151.17609 30 ft 15 kts
2026-04-25 10:35 -33.93501 151.17590 30 ft 16 kts 350°
2026-04-25 10:35 -33.93402 151.17598 30 ft 11 kts
2026-04-25 10:35 -33.93356 151.17636 30 ft 9 kts 73°
2026-04-25 10:35 -33.93351 151.17702 30 ft 2 kts 78°